CAPE
0 0 0 0 0 0 0 0 0 22 143 124 138 234 233 179 145 91 87 97 92 14 0 0 0 0 0 0 0 0 0 0 0 0 0 0 0 0 0 1 6 7 2 2
0 0 0 0 0 0 0 0 0 56 48 34 107 206 266 240 153 95 128 175 178 112 3 0 0 0 0 0 0 0 0 0 0 0 0 0 0 0 0 1 5 6 4 2
0 0 0 0 0 0 0 0 0 0 30 38 138 211 215 207 181 133 156 188 101 83 78 90 0 0 1 0 0 0 0 0 0 0 0 0 0 0 0 0 0 4 4 1
0 0 0 0 0 0 0 0 0 16 14 44 126 166 364 285 200 169 155 174 148 140 231 104 7 3 1 0 0 0 0 0 0 0 0 0 0 0 2 4 1 4 3 1
0 0 0 0 0 0 0 0 0 25 34 113 158 64 272 242 260 193 175 231 253 230 164 31 7 2 0 0 0 0 2 0 3 3 1 0 1 0 6 1 3 6 2 1
0 0 0 0 0 0 0 0 14 60 87 37 113 122 56 287 254 210 220 333 213 24 5 1 0 0 0 0 0 0 0 0 1 1 1 4 2 2 3 1 1 1 1 1
0 0 0 0 0 0 1 24 21 28 46 39 219 93 23 517 146 205 294 201 3 0 0 0 0 0 0 0 0 0 0 0 0 0 1 3 1 2 3 6 11 11 7 9
0 0 0 0 0 0 7 4 2 11 17 54 211 6 365 454 339 207 224 3 0 0 0 0 0 0 0 0 0 0 0 0 0 0 3 8 3 8 6 18 25 19 18 20
0 0 0 0 0 0 19 0 0 0 2 1 41 113 210 45 88 133 126 0 0 0 0 0 0 0 0 0 0 0 0 0 0 3 7 4 4 13 18 23 23 21 22 24
0 0 0 0 0 0 5 0 0 0 1 24 27 9 16 116 42 81 0 0 0 0 0 0 0 0 0 0 0 0 0 0 1 9 4 1 3 2 8 21 18 27 32 26
0 0 0 0 0 0 0 0 0 23 2 14 28 64 74 246 95 4 0 0 0 0 0 0 0 0 0 0 0 0 0 0 2 5 5 3 2 12 12 29 30 28 26 31
0 0 0 0 0 0 8 0 0 1 38 17 0 2 0 106 154 9 0 0 0 0 0 0 0 0 0 0 0 0 0 0 4 10 1 4 7 8 23 29 23 25 25 25
0 0 0 0 0 0 5 0 17 111 27 4 0 8 0 0 49 0 0 0 0 0 0 0 0 0 0 0 0 0 0 2 9 10 7 9 10 7 13 31 24 26 19 21
0 22 15 1 7 6 1 2 16 28 23 35 0 0 0 0 0 0 0 0 0 0 0 0 0 0 0 0 0 0 0 4 11 10 3 7 11 10 19 24 27 28 19 8
25 68 61 9 0 0 17 9 0 0 0 0 0 0 0 0 0 0 0 0 0 0 0 0 0 0 0 0 0 0 1 3 9 4 5 4 10 13 17 23 25 32 23 17
39 116 100 0 0 0 0 0 0 0 0 0 0 0 0 0 0 0 0 0 0 0 0 0 0 0 0 0 0 0 2 3 7 7 3 6 14 12 13 20 24 24 29 25
230 102 84 24 1 0 0 1 0 0 0 0 0 0 0 0 0 0 0 0 0 0 0 0 0 0 0 0 0 0 1 2 5 6 9 11 12 10 14 27 28 21 22 28
128 55 39 7 0 14 8 5 0 0 0 0 0 0 0 0 0 0 0 0 0 0 0 0 0 0 0 2 1 1 0 1 4 9 8 12 12 12 16 23 27 29 25 28
204 10 1 5 2 0 0 0 0 0 0 0 0 0 0 0 0 0 0 0 0 0 0 0 0 0 1 1 1 0 2 2 5 7 10 8 13 15 17 6 12 14 12 32
29 33 61 1 0 0 7 0 0 0 0 0 0 0 0 0 0 0 0 0 0 0 0 0 0 0 1 1 0 1 3 1 6 9 10 10 14 22 15 1 6 0 7 18
38 43 35 0 0 1 6 0 0 0 3 0 0 0 0 0 0 0 0 0 0 0 0 0 0 0 4 2 5 3 2 3 6 7 11 14 22 36 35 37 9 11 20 30
45 5 13 22 6 0 0 0 0 4 0 0 0 0 0 0 0 0 0 0 0 0 0 0 0 2 5 5 7 8 8 3 5 11 15 21 25 28 40 36 36 55 49 34
69 160 108 111 130 77 0 35 0 0 0 0 0 0 0 0 0 0 0 0 0 0 0 0 0 6 7 3 4 10 11 9 8 11 8 20 23 31 48 35 51 56 40 29
57 0 92 0 71 33 1 0 0 0 0 0 0 0 0 0 0 0 0 0 0 0 0 0 1 4 9 10 11 9 17 13 12 4 3 8 19 18 34 39 37 33 22 38
97 22 204 147 44 0 0 0 0 0 0 0 0 0 0 0 0 0 0 0 0 0 0 1 3 8 5 3 16 27 11 12 9 3 4 9 7 13 26 26 34 16 43 28
179 136 132 158 148 53 2 0 0 0 0 0 0 0 0 0 0 0 0 0 0 0 2 4 12 2 9 14 18 18 19 14 7 3 4 0 4 2 18 5 15 2 0 2
CIN
-0 -0 -0 -0 -0 -0 -0 -0 -0 -51 -122 -121 -102 -87 -114 -159 -131 -98 -53 -45 -44 -70 -0 -0 -0 -0 -0 -0 -0 -0 -0 -0 -0 -0 -0 -0 -0 -2 -0 -1 -1 -1 -2 -0
-0 -0 -0 -0 -0 -0 -0 -0 -0 -132 -207 -150 -122 -133 -139 -134 -125 -69 -34 -19 -23 -50 -112 -0 -0 -0 -0 -0 -0 -0 -0 -0 -0 -0 -0 -0 -0 -0 -0 -1 -0 -1 -1 -0
-0 -0 -0 -0 -0 -0 -0 -0 -0 -0 -212 -196 -160 -130 -210 -159 -115 -65 -44 -19 -41 -33 -30 -37 -0 -0 -1 -0 -0 -0 -0 -0 -0 -0 -0 -0 -0 -0 -0 -0 -1 -1 -1 -0
-0 -0 -0 -0 -0 -0 -0 -0 -0 -71 -115 -17 -165 -2 -123 -150 -148 -105 -53 -39 -27 -9 -1 -25 -77 -0 -1 -0 -0 -0 -0 -0 -0 -0 -0 -0 -0 -0 -2 -1 -1 -1 -1 -1
-0 -0 -0 -0 -0 -0 -0 -0 -0 -109 -47 -55 -129 -63 -19 -165 -144 -127 -87 -37 -6 -17 -17 -44 -54 -0 -0 -0 -0 -0 -1 -0 -1 -1 -1 -0 -2 -3 -1 -1 -1 -1 -2 -2
-0 -0 -0 -0 -0 -0 -0 -4 -51 -69 -22 -10 -9 -52 -7 -107 -130 -127 -82 -22 -29 -84 -1 -39 -0 -0 -0 -0 -0 -0 -0 -1 -1 -0 -1 -1 -1 -1 -2 -2 -3 -3 -2 -2
-0 -0 -0 -0 -0 -0 -84 -41 -10 -4 -4 -4 -55 -30 -5 -78 -159 -93 -45 -45 -24 -1 -0 -0 -0 -0 -0 -0 -0 -0 -0 -0 -0 -0 -1 -1 -2 -1 -2 -2 -1 -1 -1 -1
-0 -0 -0 -0 -0 -0 -44 -11 -2 -4 -3 -4 -65 -6 -4 -131 -189 -130 -45 -123 -0 -0 -0 -0 -0 -0 -0 -0 -0 -0 -0 -0 -0 -2 -1 -0 -2 -1 -1 -0 -1 -1 -1 -1
-0 -0 -0 -0 -0 -0 -29 -0 -0 -0 -1 -1 -3 -12 -200 -302 -224 -131 -108 -0 -0 -0 -0 -0 -0 -0 -0 -0 -0 -0 -0 -0 -0 -1 -1 -2 -5 -1 -1 -1 -0 -1 -1 -2
-0 -0 -0 -0 -0 -0 -30 -0 -0 -0 -2 -5 -4 -7 -3 -166 -203 -152 -0 -0 -0 -0 -0 -0 -0 -0 -0 -0 -0 -0 -0 -0 -1 -0 -0 -2 -3 -4 -1 -1 -1 -0 -1 -1
-0 -0 -0 -0 -0 -0 -0 -0 -0 -19 -4 -5 -5 -3 -146 -69 -153 -207 -0 -0 -0 -0 -0 -0 -0 -0 -0 -0 -0 -0 -0 -0 -1 -1 -0 -2 -1 -1 -1 -1 -1 -0 -1 -0
-0 -0 -0 -0 -0 -0 -46 -0 -0 -3 -2 -2 -0 -6 -0 -148 -105 -185 -0 -0 -0 -0 -0 -0 -0 -0 -0 -0 -0 -0 -0 -0 -1 -1 -2 -1 -1 -2 -0 -1 -0 -0 -0 -1
-0 -0 -0 -0 -0 -0 -40 -10 -26 -31 -17 -4 -0 -15 -0 -0 -149 -0 -0 -0 -0 -0 -0 -0 -0 -0 -0 -0 -0 -0 -0 -2 -1 -0 -2 -1 -1 -0 -1 -1 -1 -1 -1 -1
-0 -41 -10 -5 -11 -15 -4 -56 -47 -27 -7 -4 -0 -0 -0 -0 -0 -0 -0 -0 -0 -0 -0 -0 -0 -0 -0 -0 -0 -0 -0 -0 -1 -1 -2 -1 -0 -0 -0 -1 -0 -1 -1 -1
-87 -30 -64 -108 -0 -0 -20 -35 -0 -0 -0 -0 -0 -0 -0 -0 -0 -0 -0 -0 -0 -0 -0 -0 -0 -0 -0 -0 -0 -0 -1 -1 -1 -1 -2 -2 -1 -1 -1 -1 -0 -1 -1 -1
-173 -67 -76 -0 -1 -23 -2 -0 -0 -0 -0 -0 -0 -0 -0 -0 -0 -0 -0 -0 -0 -0 -0 -0 -0 -0 -0 -0 -0 -0 -1 -1 -1 -0 -2 -1 -1 -1 -0 -0 -0 -1 -0 -1
-104 -89 -46 -39 -13 -0 -2 -18 -0 -0 -0 -0 -0 -0 -0 -0 -0 -0 -0 -0 -0 -0 -0 -0 -0 -0 -0 -0 -0 -0 -0 -0 -1 -1 -1 -1 -1 -1 -0 -0 -1 -1 -1 -1
-109 -106 -74 -60 -2 -9 -2 -40 -0 -0 -0 -0 -0 -0 -0 -0 -0 -0 -0 -0 -0 -0 -0 -0 -0 -0 -0 -1 -1 -1 -2 -1 -1 -0 -0 -0 -0 -1 -1 -1 -1 -0 -1 -1
-122 -71 -14 -20 -2 -0 -0 -0 -0 -0 -0 -0 -0 -0 -0 -0 -0 -0 -0 -0 -0 -0 -0 -0 -0 -0 -1 -1 -2 -0 -1 -1 -1 -0 -0 -1 -0 -1 -1 -11 -4 -5 -2 -1
-160 -116 -14 -1 -0 -0 -44 -0 -0 -0 -0 -0 -0 -0 -0 -0 -0 -0 -0 -0 -0 -0 -0 -1 -0 -0 -1 -1 -0 -1 -1 -1 -1 -1 -1 -0 -0 -0 -2 -7 -12 -0 -3 -1
-58 -65 -30 -0 -0 -7 -109 -0 -0 -0 -39 -0 -0 -0 -0 -0 -0 -0 -0 -0 -0 -0 -0 -0 -0 -0 -1 -1 -1 -1 -0 -1 -1 -1 -0 -0 -0 -1 -2 -0 -24 -28 -3 -2
-21 -22 -22 -26 -11 -2 -9 -0 -0 -60 -0 -0 -0 -0 -0 -0 -0 -0 -0 -0 -0 -0 -0 -0 -0 -1 -1 -1 -1 -0 -1 -1 -0 -1 -1 -1 -1 -0 -0 -6 -15 -0 -0 -1
-19 -43 -12 -23 -17 -221 -0 -256 -0 -0 -0 -0 -0 -0 -0 -0 -0 -0 -0 -0 -0 -0 -0 -0 -0 -2 -0 -2 -6 -3 -1 -0 -1 -1 -1 -1 -0 -1 -0 -7 -2 -5 -2 -1
-83 -0 -31 -0 -132 -184 -250 -0 -0 -0 -0 -0 -0 -0 -0 -0 -0 -0 -0 -0 -0 -0 -0 -0 -1 -1 -1 -1 -7 -4 -0 -0 -1 -1 -2 -1 -1 -2 -1 -1 -2 -3 -2 -1
-83 -54 -51 -55 -142 -0 -0 -0 -0 -0 -0 -0 -0 -0 -0 -0 -0 -0 -0 -0 -0 -0 -0 -1 -1 -1 -1 -7 -2 -0 -0 -0 -1 -3 -2 -1 -2 -3 -2 -1 -1 -3 -1 -14
-107 -43 -25 -4 -53 -89 -38 -0 -0 -0 -0 -0 -0 -0 -0 -0 -0 -0 -0 -0 -0 -0 -2 -1 -1 -1 -1 -1 -0 -0 -0 -1 -1 -1 -1 -1 -2 -3 -1 -4 -3 -16 -0 -45
Wind_Speed
11 7 15 16 22 23 24 15 8 8 11 9 7 6 7 8 7 8 8 9 9 10 11 13 15 18 20 22 24 27 30 33 34 35 36 34 33 31 32 33 34 35 35 35
11 21 18 19 21 26 20 13 5 9 7 8 6 4 5 6 7 6 7 7 7 8 9 11 14 17 19 21 24 26 28 32 34 33 33 31 31 30 31 32 35 36 36 35
10 11 6 2 5 4 17 15 2 8 7 6 7 3 3 4 4 5 5 5 5 6 7 10 12 15 18 20 23 26 29 31 33 33 31 30 29 29 33 34 36 36 37 35
19 16 4 6 14 8 25 17 2 4 5 14 7 16 5 4 3 3 5 5 5 5 7 9 12 14 17 19 22 26 29 30 31 32 30 30 30 32 33 34 34 34 36 34
14 9 4 3 6 10 29 4 6 6 5 12 5 12 15 6 2 3 6 5 4 6 6 9 12 14 17 18 22 26 28 28 29 29 30 29 31 31 32 31 33 34 34 34
25 15 10 6 9 1 5 7 7 6 7 3 6 6 11 8 3 4 7 6 7 8 9 11 13 15 17 19 22 25 26 27 27 28 29 30 30 30 29 29 31 32 34 34
14 14 13 7 3 7 4 6 7 7 3 13 15 11 6 11 12 6 7 7 9 9 10 11 12 14 16 19 22 24 25 26 27 27 28 29 28 28 28 28 28 30 32 33
13 8 7 5 3 2 11 5 19 22 27 21 15 13 15 13 12 9 8 10 10 10 11 11 12 15 17 20 22 23 24 25 26 26 27 27 27 26 27 28 27 28 30 30
11 17 7 8 8 2 4 5 17 21 20 24 16 15 13 12 10 8 9 11 10 11 11 12 13 15 17 19 21 22 23 24 25 26 26 26 27 26 27 29 28 28 28 27
16 13 10 11 8 12 9 5 15 11 28 27 16 15 12 11 9 7 9 10 10 11 11 11 12 15 18 19 20 21 22 23 24 25 25 25 25 26 27 29 29 28 28 29
20 19 10 8 7 4 6 13 16 20 23 31 31 20 21 15 7 7 9 10 10 10 11 11 12 15 17 18 19 20 21 21 22 24 23 24 25 25 26 28 30 30 27 28
18 18 12 12 16 16 19 23 10 22 22 19 26 17 18 17 9 9 10 11 11 11 11 11 12 14 16 17 18 19 20 20 21 21 22 23 24 25 25 27 29 29 30 30
13 19 13 12 13 15 12 15 16 17 22 27 29 24 18 13 9 10 11 11 11 11 11 11 12 14 15 16 17 17 18 19 20 20 21 22 23 24 25 25 27 28 29 29
16 17 20 17 15 13 14 13 13 15 27 22 21 25 16 10 8 10 11 11 11 10 10 10 12 13 13 15 15 16 17 18 19 20 21 22 23 23 24 24 25 26 26 27
16 16 16 15 14 14 15 13 14 17 20 25 26 23 15 7 8 10 11 11 10 9 9 10 11 12 13 14 14 14 16 17 18 19 21 22 22 22 23 24 24 24 26 27
19 18 14 17 16 13 16 17 16 14 17 20 19 16 15 9 9 10 11 10 9 9 9 9 10 11 12 13 13 13 14 16 17 18 20 20 21 22 22 23 25 25 23 25
17 16 17 21 18 16 20 14 11 13 15 19 17 16 11 9 8 9 11 10 9 9 9 9 10 11 11 12 13 13 13 14 16 17 19 19 20 22 22 22 22 25 24 21
17 18 20 21 14 24 17 17 17 16 15 12 14 12 10 9 9 10 10 9 9 9 9 10 10 11 12 13 13 13 13 13 14 16 18 18 18 19 20 20 21 19 20 21
18 16 16 17 21 24 24 17 12 13 16 8 10 10 10 10 10 9 9 9 9 10 10 11 11 12 12 13 13 12 12 12 13 14 16 17 17 18 20 20 20 19 17 19
13 12 18 22 33 29 19 13 11 12 22 6 7 8 9 10 8 7 10 9 10 11 11 12 12 13 13 14 14 13 12 12 12 14 15 15 16 17 19 20 20 18 17 19
15 16 23 12 15 20 15 12 10 17 16 9 8 7 8 7 14 12 12 11 11 11 12 13 13 13 13 14 15 14 13 12 12 12 13 14 15 16 18 18 16 16 17 18
17 19 18 18 20 29 10 9 14 15 14 10 8 8 8 10 11 11 12 11 11 12 13 13 13 13 13 14 14 15 15 13 11 12 12 12 13 14 16 17 17 15 15 16
17 18 18 18 19 15 7 15 13 14 13 11 8 8 9 9 10 11 11 11 12 13 13 13 13 13 13 13 13 14 15 14 11 11 11 12 13 14 15 16 17 17 16 15
13 13 18 17 16 15 11 11 13 13 13 10 8 8 8 8 9 10 11 11 12 12 13 13 12 12 12 12 12 12 13 14 12 12 12 13 12 15 15 15 19 18 18 19
18 12 12 17 14 15 14 9 12 11 9 9 8 7 7 8 8 10 11 11 12 12 12 13 12 12 12 12 12 12 14 14 13 13 14 14 14 16 17 17 18 19 19 20
14 16 15 16 11 16 15 9 8 8 8 8 8 7 7 7 8 10 11 11 12 12 12 12 12 13 13 12 12 13 14 14 14 15 16 18 17 18 19 19 20 16 17 18
Wind_Direction
246 169 164 161 171 263 234 160 130 119 47 133 131 76 101 112 115 105 101 96 75 71 57 45 34 26 23 19 12 7 6 5 2 1 0 0 1 2 1 2 -0 358 358 357
253 175 169 170 177 209 186 164 35 16 93 140 88 96 93 129 141 123 111 108 87 78 62 42 34 28 26 22 16 15 13 8 6 6 7 9 8 8 6 5 2 359 357 359
259 254 283 190 163 168 177 177 104 322 51 109 65 67 90 116 124 138 133 117 101 90 67 47 38 33 30 24 21 17 14 11 9 11 14 15 16 14 9 8 3 3 2 2
264 276 279 170 173 179 246 187 114 22 73 360 116 4 33 91 118 152 160 153 135 90 65 55 43 36 30 30 22 16 15 16 18 18 19 19 18 14 13 10 10 10 9 11
271 272 244 276 174 163 231 79 127 123 109 5 39 5 8 76 68 142 159 150 130 71 74 60 48 41 37 35 22 17 19 23 24 24 24 23 20 19 18 20 19 18 17 17
264 280 270 290 305 115 63 69 53 80 28 11 27 25 13 31 43 102 129 100 88 89 77 61 50 46 39 32 23 22 25 28 28 30 28 26 25 24 27 27 26 23 21 23
265 270 279 285 48 109 69 99 5 4 66 317 5 8 14 20 31 87 112 94 102 93 81 66 56 45 39 29 26 28 30 31 33 33 31 31 31 32 32 32 32 29 24 26
257 227 201 183 190 38 155 142 238 306 277 326 3 7 8 29 33 53 94 104 104 95 81 67 56 45 37 31 29 32 35 36 36 37 35 35 35 35 34 33 34 34 29 31
247 269 209 275 269 298 127 323 313 311 321 264 348 6 24 33 40 67 88 106 97 91 78 66 56 44 36 33 33 36 39 40 40 41 40 39 39 40 37 33 35 36 35 36
269 267 265 268 269 291 290 331 318 330 277 302 351 3 9 24 37 75 102 108 98 88 78 67 55 42 36 38 40 41 43 43 42 42 42 43 45 44 40 36 37 37 38 35
256 267 270 265 262 270 305 300 306 307 311 284 295 353 357 13 51 93 109 110 101 95 79 69 55 41 40 44 42 46 46 44 44 43 45 45 46 46 45 42 37 39 42 40
251 268 268 266 280 285 281 285 311 300 309 327 320 326 4 12 46 95 106 105 99 93 80 68 56 47 47 45 46 50 48 48 46 48 48 49 47 47 48 46 41 42 42 44
244 261 261 275 285 290 298 300 303 317 316 303 303 333 2 18 55 95 105 104 101 91 81 66 53 49 50 49 52 54 53 49 49 52 53 52 50 48 47 50 48 46 46 46
248 264 261 269 279 291 296 299 310 318 298 314 318 330 358 32 74 102 105 108 103 95 85 67 56 55 58 53 56 58 58 53 54 56 55 53 50 50 49 51 52 49 48 45
254 260 260 279 290 297 305 300 312 310 311 306 315 332 0 47 97 109 110 109 102 99 88 71 64 63 62 57 58 64 62 60 60 55 53 52 53 55 53 51 52 52 48 47
250 255 262 273 285 305 305 298 307 315 321 326 337 349 6 50 84 103 119 117 109 103 94 81 73 70 65 58 57 65 63 61 60 52 51 55 53 54 56 53 49 50 53 49
249 254 259 265 289 308 285 294 307 320 329 328 337 354 37 60 92 117 121 119 110 106 98 88 78 72 65 58 55 63 66 61 56 56 54 55 54 53 52 53 55 48 50 51
247 252 264 273 294 272 297 290 298 310 323 345 349 13 40 53 78 107 114 113 106 105 96 91 83 74 69 61 58 61 64 64 60 57 54 54 55 54 50 49 48 52 48 46
257 258 267 273 284 283 287 293 302 316 321 355 359 22 34 46 67 88 106 105 100 102 95 91 84 78 70 64 61 63 64 67 65 58 55 55 54 52 45 45 44 46 49 45
259 272 278 291 256 263 294 317 316 331 300 30 40 46 52 67 55 72 117 103 91 94 93 90 84 81 73 62 62 64 65 65 63 56 54 56 54 50 42 42 43 44 43 43
264 281 275 305 303 297 306 316 334 298 316 22 47 63 74 80 7 58 97 95 89 91 91 90 85 82 76 65 59 57 60 65 67 61 59 57 51 44 40 39 42 43 43 41
271 273 281 289 293 258 337 324 295 314 331 1 36 61 72 30 37 65 85 88 89 89 91 91 86 77 71 69 67 55 51 57 65 58 56 52 46 41 38 37 38 41 42 42
270 279 290 297 299 331 7 317 311 323 335 356 29 63 74 50 56 71 79 85 87 91 93 86 87 78 71 66 63 56 52 54 64 58 52 46 42 39 37 35 35 37 42 44
293 309 293 298 312 322 332 338 325 330 340 5 38 67 64 57 64 69 80 85 86 91 88 82 83 78 71 69 67 62 54 52 60 53 46 44 41 34 36 36 31 34 36 36
281 287 303 303 317 320 327 343 336 340 3 23 40 51 55 58 62 72 83 86 87 89 85 78 76 72 66 70 66 60 51 49 55 46 38 40 42 35 31 31 31 31 34 32
277 276 286 307 336 317 333 1 3 16 21 44 54 47 47 57 65 77 84 85 88 87 82 77 69 70 70 66 60 54 50 49 50 42 39 33 33 31 27 28 26 35 35 32